Logan, UT

4:47 AM MDT on April 21, 2018 (GMT -0600)
Logan-Cache

Weather History for KLGU - February, 2014

Change the Weather History Date:

Monday, February 17, 2014

  Actual Average Record
Temperature  
Mean Temperature 34 °F -  
Max Temperature 45 °F 37 °F 54 °F (1958)
Min Temperature 23 °F 19 °F -14 °F (2005)
Degree Days  
Heating Degree Days 31    
Moisture  
Dew Point 23 °F    
Average Humidity 67    
Maximum Humidity 85    
Minimum Humidity 49    
Precipitation  
Precipitation 0.00 in - - ()
Sea Level Pressure  
Sea Level Pressure 30.08 in    
Wind  
Wind Speed 4 mph (North)    
Max Wind Speed 14 mph    
Max Gust Speed -    
Visibility 10 miles    
Events      
Averages and records for this station are not official NWS values.
T = Trace of Precipitation, MM = Missing Value Source: NWS Daily Summary

Daily Weather History Graph

Daily Weather History Graph

Search for Another Location

Airport or City:

Astronomy

Feb. 17, 2014 Rise Set
Actual Time 7:20 AM MST 6:03 PM MST
Civil Twilight 6:51 AM MST 6:31 PM MST
Nautical Twilight 6:19 AM MST 7:04 PM MST
Astronomical Twilight 5:46 AM MST 7:36 PM MST
Moon 9:04 PM MST (2/17) 8:19 AM MST (2/17)
Length of Visible Light 11h 40m
Length of Day
10h 43m
Waning Gibbous, 93% of the Moon is Illuminated
Feb 17
Waning Gibbous
Feb 22
Last Quarter
Mar 1
New
Mar 8
First Quarter
Mar 16
Full

Hourly Weather History & Observations

Time (MST) Temp. Windchill Dew Point Humidity Pressure Visibility Wind Dir Wind Speed Gust Speed Precip Events Conditions
12:51 AM 28.9 °F 25.2 °F 21.0 °F 72% 30.30 in 10.0 mi SE 3.5 mph - N/A   Clear
1:51 AM 26.1 °F - 19.9 °F 78% 30.27 in 10.0 mi Calm Calm - N/A   Clear
2:51 AM 23.0 °F - 19.0 °F 85% 30.26 in 10.0 mi Calm Calm - N/A   Clear
3:51 AM 25.0 °F - 19.9 °F 81% 30.24 in 10.0 mi Calm Calm - N/A   Clear
4:51 AM 25.0 °F - 19.0 °F 78% 30.24 in 10.0 mi Calm Calm - N/A   Clear
5:51 AM 26.1 °F - 21.0 °F 81% 30.23 in 10.0 mi Calm Calm - N/A   Clear
6:51 AM 25.0 °F - 19.9 °F 81% 30.20 in 10.0 mi Calm Calm - N/A   Clear
7:51 AM 25.0 °F - 21.0 °F 85% 30.19 in 10.0 mi Calm Calm - N/A   Clear
8:51 AM 30.0 °F - 23.0 °F 75% 30.17 in 10.0 mi Calm Calm - N/A   Clear
9:51 AM 33.1 °F 30.0 °F 23.0 °F 66% 30.15 in 10.0 mi NNW 3.5 mph - N/A   Clear
10:51 AM 35.1 °F 31.0 °F 23.0 °F 61% 30.12 in 10.0 mi North 4.6 mph - N/A   Clear
11:51 AM 39.0 °F 35.7 °F 25.0 °F 57% 30.08 in 10.0 mi NNE 4.6 mph - N/A   Clear
12:51 PM 39.9 °F 34.5 °F 26.1 °F 58% 30.04 in 10.0 mi North 8.1 mph - N/A   Clear
1:51 PM 41.0 °F 34.3 °F 28.0 °F 60% 30.00 in 10.0 mi North 11.5 mph - N/A   Clear
2:51 PM 44.1 °F 37.7 °F 28.9 °F 55% 30.01 in 10.0 mi North 12.7 mph - N/A   Clear
3:51 PM 44.1 °F 37.4 °F 26.1 °F 49% 29.97 in 10.0 mi North 13.8 mph - N/A   Clear
4:51 PM 45.0 °F 40.1 °F 28.0 °F 52% 29.96 in 10.0 mi North 9.2 mph - N/A   Clear
5:51 PM 41.0 °F 35.8 °F 27.0 °F 57% 29.95 in 10.0 mi North 8.1 mph - N/A   Clear
6:51 PM 37.9 °F 33.5 °F 26.1 °F 62% 29.95 in 10.0 mi NE 5.8 mph - N/A   Clear
7:51 PM 36.0 °F 33.3 °F 25.0 °F 64% 29.95 in 10.0 mi Variable 3.5 mph - N/A   Clear
8:51 PM 37.0 °F 34.5 °F 23.0 °F 57% 29.91 in 10.0 mi NNW 3.5 mph - N/A   Clear
9:51 PM 34.0 °F 25.5 °F 24.1 °F 67% 29.93 in 10.0 mi NNW 11.5 mph - N/A   Clear
10:51 PM 37.9 °F 34.4 °F 23.0 °F 55% 29.92 in 10.0 mi NE 4.6 mph - N/A   Clear
11:51 PM 32.0 °F 27.5 °F 21.9 °F 66% 29.91 in 10.0 mi ESE 4.6 mph - N/A   Clear